Date String (YYYY-MM-DD hh:mm:ss) UTC,Instrument flags,Ambient pressure (hPa),Sample flow (lpm),Bypass flow (lpm),Sample temperature (°C),Ambient temperature (°C),ASC tube jacket temperature (°C),LED temperature (°C),Box temperature (°C),Sample RH (%),Span deviation,Mass concentration (μg/m³),Mass concentration (μg/m³),Mass concentration (μg/m³)
DateTimeUTC,F1_M11,P_M11,Q1_M11,Q2_M11,T1_M11,T2_M11,T3_M11,T4_M11,T5_M11,U1_M11,ZSPAN_M11,X0_M11,X2_M11,X1_M11
2021-09-26 18:00:00,,0826.5,5.00,0.00,29.2,26.6,00.0,38.4,30.8,15.2,0001.7,0017.57,0007.43,0006.45
2021-09-26 18:01:00,,0826.5,5.01,0.00,29.2,27.0,00.0,38.3,30.9,14.4,0001.6,0017.04,0007.50,0006.47
2021-09-26 18:02:00,,0826.5,5.00,0.00,29.2,27.4,00.0,38.3,31.0,14.7,0002.2,0015.98,0007.57,0006.48
2021-09-26 18:03:00,,0826.5,5.00,0.00,29.3,27.8,00.0,38.3,31.1,14.6,0002.0,0015.75,0007.57,0006.47
2021-09-26 18:04:00,,0826.5,4.99,0.00,29.3,28.1,00.0,38.3,31.2,14.4,0001.8,0015.43,0007.53,0006.46
2021-09-26 18:05:00,,0826.5,4.99,0.00,29.4,28.3,00.0,38.3,31.3,14.4,0001.4,0015.74,0007.51,0006.45
2021-09-26 18:06:00,,0826.4,5.01,0.00,29.4,27.7,00.0,38.4,31.1,14.6,0001.0,0016.36,0007.50,0006.42
2021-09-26 18:07:00,,0826.5,5.01,0.00,29.3,26.1,00.0,38.3,30.7,14.1,0001.4,0016.61,0007.48,0006.41
2021-09-26 18:08:00,,0826.5,4.99,0.00,29.2,26.0,00.0,38.3,30.6,13.9,0001.6,0016.89,0007.49,0006.38
2021-09-26 18:09:00,,0826.4,5.00,0.00,29.1,26.4,00.0,38.3,30.7,13.7,0001.9,0016.99,0007.49,0006.36
2021-09-26 18:10:00,,0826.4,5.00,0.00,29.1,26.9,00.0,38.3,30.8,13.8,0001.8,0017.15,0007.47,0006.33
2021-09-26 18:11:00,,0826.4,4.99,0.00,29.2,27.3,00.0,38.2,30.9,14.1,0001.8,0015.98,0007.46,0006.32
2021-09-26 18:12:00,,0826.3,5.00,0.00,29.2,27.7,00.0,38.2,31.0,14.1,0002.2,0016.34,0007.45,0006.31
2021-09-26 18:13:00,,0826.3,5.00,0.00,29.3,28.0,00.0,38.2,31.1,13.7,0002.3,0016.87,0007.47,0006.30
2021-09-26 18:14:00,,0826.3,5.00,0.00,29.3,28.2,00.0,38.3,31.2,13.5,0002.3,0017.21,0007.48,0006.29
2021-09-26 18:15:00,,0826.3,4.99,0.00,29.4,28.5,00.0,38.3,31.3,13.5,0002.7,0017.48,0007.49,0006.29
2021-09-26 18:16:00,,0826.2,5.01,0.00,29.4,28.0,00.0,38.3,31.2,13.5,0002.9,0016.95,0007.42,0006.29
2021-09-26 18:17:00,,0826.5,4.99,0.00,29.3,26.2,00.0,38.3,30.7,13.5,0003.1,0016.30,0007.40,0006.29
2021-09-26 18:18:00,,0826.3,5.00,0.00,29.2,25.9,00.0,38.3,30.6,13.6,0002.9,0016.29,0007.39,0006.31
2021-09-26 18:19:00,,0826.2,5.00,0.00,29.2,26.4,00.0,38.3,30.7,13.8,0002.7,0016.04,0007.39,0006.32
2021-09-26 18:20:00,,0826.2,5.00,0.00,29.1,26.8,00.0,38.2,30.8,13.9,0002.9,0015.87,0007.40,0006.33
2021-09-26 18:21:00,,0826.2,4.99,0.00,29.2,27.2,00.0,38.2,30.9,13.9,0003.1,0015.40,0007.41,0006.31
2021-09-26 18:22:00,,0826.2,5.00,0.00,29.2,27.6,00.0,38.2,31.0,13.9,0002.9,0015.46,0007.37,0006.31
2021-09-26 18:23:00,,0826.2,5.00,0.00,29.3,28.0,00.0,38.2,31.1,14.0,0002.2,0015.13,0007.29,0006.30
2021-09-26 18:24:00,,0826.2,5.01,0.00,29.3,28.1,00.0,38.2,31.2,13.8,0001.9,0014.38,0007.22,0006.29
2021-09-26 18:25:00,,0826.2,4.99,0.00,29.3,26.9,00.0,38.2,30.8,14.0,0002.5,0014.92,0007.19,0006.30
2021-09-26 18:26:00,,0826.2,5.01,0.00,29.1,25.7,00.0,38.2,30.4,14.2,0002.0,0015.94,0007.19,0006.29
2021-09-26 18:27:00,,0826.2,4.99,0.00,29.0,26.0,00.0,38.2,30.5,14.4,0002.4,0016.26,0007.23,0006.30
2021-09-26 18:28:00,,0826.1,5.00,0.00,29.0,26.4,00.0,38.2,30.6,14.3,0002.6,0016.31,0007.24,0006.31
2021-09-26 18:29:00,,0826.1,4.99,0.00,29.0,26.8,00.0,38.1,30.7,14.2,0002.6,0015.96,0007.31,0006.32
2021-09-26 18:30:00,,0826.2,4.99,0.00,29.1,27.3,00.0,38.1,30.9,14.4,0002.9,0015.78,0007.34,0006.32
2021-09-26 18:31:00,,0826.1,5.02,0.00,29.1,27.6,00.0,38.1,30.9,14.5,0003.0,0015.88,0007.35,0006.32
2021-09-26 18:32:00,,0826.2,4.99,0.00,29.2,27.9,00.0,38.2,31.0,14.4,0003.2,0015.75,0007.34,0006.35
2021-09-26 18:33:00,,0826.2,5.01,0.00,29.2,28.2,00.0,38.2,31.1,14.6,0003.5,0015.76,0007.36,0006.35
2021-09-26 18:34:00,,0826.1,4.99,0.00,29.3,28.4,00.0,38.2,31.2,14.2,0003.7,0015.48,0007.41,0006.36
2021-09-26 18:35:00,,0826.2,4.99,0.00,29.4,28.6,00.0,38.2,31.3,14.3,0003.6,0015.13,0007.43,0006.37
2021-09-26 18:36:00,,0826.2,5.01,0.00,29.4,27.6,00.0,38.3,31.1,14.4,0003.7,0014.67,0007.49,0006.39
2021-09-26 18:37:00,,0826.2,4.99,0.00,29.2,26.0,00.0,38.2,30.6,14.5,0003.8,0013.23,0007.53,0006.42
2021-09-26 18:38:00,,0826.2,5.01,0.00,29.1,26.1,00.0,38.2,30.6,14.5,0003.8,0013.03,0007.53,0006.42
2021-09-26 18:39:00,,0826.1,4.99,0.00,29.1,26.6,00.0,38.2,30.7,14.6,0003.8,0013.91,0007.59,0006.44
2021-09-26 18:40:00,,0826.1,5.00,0.00,29.1,27.0,00.0,38.2,30.8,14.8,0003.7,0014.17,0007.56,0006.44
2021-09-26 18:41:00,,0826.1,5.00,0.00,29.2,27.4,00.0,38.2,31.0,14.7,0003.6,0014.87,0007.57,0006.44
2021-09-26 18:42:00,,0826.2,4.99,0.00,29.2,27.8,00.0,38.2,31.0,14.3,0003.3,0015.82,0007.59,0006.43
2021-09-26 18:43:00,,0826.1,4.99,0.00,29.3,28.1,00.0,38.2,31.1,14.3,0003.2,0016.27,0007.63,0006.43
2021-09-26 18:44:00,,0826.1,5.00,0.00,29.3,28.3,00.0,38.2,31.2,14.2,0002.9,0016.55,0007.65,0006.44
2021-09-26 18:45:00,,0826.0,5.01,0.00,29.4,27.6,00.0,38.3,31.0,14.1,0002.9,0016.61,0007.66,0006.44
2021-09-26 18:46:00,,0826.0,5.00,0.00,29.2,26.0,00.0,38.2,30.6,14.2,0003.0,0017.80,0007.71,0006.43
2021-09-26 18:47:00,,0826.0,5.00,0.00,29.1,26.0,00.0,38.2,30.5,14.5,0002.7,0018.25,0007.72,0006.40
2021-09-26 18:48:00,,0826.0,5.00,0.00,29.1,26.4,00.0,38.2,30.7,14.7,0002.7,0018.49,0007.71,0006.37
2021-09-26 18:49:00,,0826.0,5.00,0.00,29.1,26.9,00.0,38.2,30.8,14.5,0002.6,0018.93,0007.75,0006.36
2021-09-26 18:50:00,,0826.0,4.99,0.00,29.1,27.3,00.0,38.2,30.9,14.5,0002.4,0019.10,0007.71,0006.32
2021-09-26 18:51:00,,0826.0,5.01,0.00,29.2,27.7,00.0,38.2,31.0,14.5,0002.1,0018.98,0007.71,0006.30
2021-09-26 18:52:00,,0826.0,5.00,0.00,29.2,28.0,00.0,38.2,31.1,14.6,0001.7,0018.85,0007.71,0006.29
2021-09-26 18:53:00,,0826.0,5.00,0.00,29.3,28.2,00.0,38.2,31.2,14.6,0001.6,0018.23,0007.68,0006.29
2021-09-26 18:54:00,,0826.0,4.99,0.00,29.3,28.4,00.0,38.2,31.3,14.7,0001.4,0018.07,0007.62,0006.28
2021-09-26 18:55:00,,0825.9,5.00,0.00,29.4,27.9,00.0,38.2,31.1,14.3,0001.5,0017.51,0007.67,0006.27
2021-09-26 18:56:00,,0825.9,5.00,0.00,29.2,26.1,00.0,38.2,30.6,14.5,0001.4,0018.11,0007.65,0006.26
2021-09-26 18:57:00,,0825.9,5.00,0.00,29.1,25.9,00.0,38.2,30.5,14.6,0001.3,0019.16,0007.62,0006.26
2021-09-26 18:58:00,,0825.8,5.00,0.00,29.1,26.4,00.0,38.2,30.7,14.7,0001.3,0020.00,0007.54,0006.24
2021-09-26 18:59:00,,0825.9,4.98,0.00,29.1,26.8,00.0,38.2,30.8,14.6,0001.3,0020.29,0007.49,0006.22
